LU4HH-11 Weather Reports


time (UTC)temp
C
wind
direction
speed
KPH
gust
KPH
rain 1hr
cm
rain 24hr
cm
rain mn
cm
humidity
%
barometer
mb
20260507153041 26 0 0.0 0.0 0.00 0.00 0.00 31 960.0
20260507152926 26 0 0.0 0.0 0.00 0.00 0.00 31 960.0
20260507151916 25 0 0.0 0.0 0.00 0.00 0.00 32 960.0
20260507150906 25 0 0.0 0.0 0.00 0.00 0.00 32 960.0
20260507145856 25 0 0.0 0.0 0.00 0.00 0.00 33 960.0
20260507144846 22 0 0.0 0.0 0.00 0.00 0.00 38 960.0
20260507143836 26 0 0.0 0.0 0.00 0.00 0.00 33 960.0
20260507142826 26 0 0.0 0.0 0.00 0.00 0.00 31 960.0
20260507141816 26 0 0.0 0.0 0.00 0.00 0.00 33 960.0
20260507140806 26 0 0.0 0.0 0.00 0.00 0.00 32 960.0
20260507135756 26 0 0.0 0.0 0.00 0.00 0.00 32 960.0
20260507134746 26 0 0.0 0.0 0.00 0.00 0.00 35 960.0
20260507133736 25 0 0.0 0.0 0.00 0.00 0.00 38 960.0
20260507132726 27 0 0.0 0.0 0.00 0.00 0.00 33 960.0
20260507131716 27 0 0.0 0.0 0.00 0.00 0.00 32 960.0
20260507130706 27 0 0.0 0.0 0.00 0.00 0.00 33 960.0
20260507125656 27 0 0.0 0.0 0.00 0.00 0.00 34 960.0
20260507124646 27 0 0.0 0.0 0.00 0.00 0.00 34 960.0
20260507123636 27 0 0.0 0.0 0.00 0.00 0.00 34 959.0
20260507122626 27 0 0.0 0.0 0.00 0.00 0.00 34 959.0
20260507121616 27 0 0.0 0.0 0.00 0.00 0.00 33 959.0
20260507120606 27 0 0.0 0.0 0.00 0.00 0.00 33 958.0
20260507115556 27 0 0.0 0.0 0.00 0.00 0.00 31 959.0
20260507114546 27 0 0.0 0.0 0.00 0.00 0.00 34 959.0
20260507113536 27 0 0.0 0.0 0.00 0.00 0.00 34 959.0
20260507112526 27 0 0.0 0.0 0.00 0.00 0.00 34 959.0
20260507111516 27 0 0.0 0.0 0.00 0.00 0.00 34 958.0
20260507110506 27 0 0.0 0.0 0.00 0.00 0.00 35 957.0
20260507105456 27 0 0.0 0.0 0.00 0.00 0.00 35 956.0
20260507104446 27 0 0.0 0.0 0.00 0.00 0.00 35 956.0
20260507103436 27 0 0.0 0.0 0.00 0.00 0.00 36 956.0
20260507102426 27 0 0.0 0.0 0.00 0.00 0.00 36 957.0
20260507101416 27 0 0.0 0.0 0.00 0.00 0.00 36 956.0
20260507100406 27 0 0.0 0.0 0.00 0.00 0.00 36 956.0
20260507095357 27 0 0.0 0.0 0.00 0.00 0.00 37 956.0
20260507094346 27 0 0.0 0.0 0.00 0.00 0.00 37 956.0
20260507093336 28 0 0.0 0.0 0.00 0.00 0.00 36 956.0
20260507092326 28 0 0.0 0.0 0.00 0.00 0.00 36 957.0
20260507091316 28 0 0.0 0.0 0.00 0.00 0.00 36 956.0
20260507090306 28 0 0.0 0.0 0.00 0.00 0.00 36 956.0
20260507085256 28 0 0.0 0.0 0.00 0.00 0.00 36 955.0
20260507084246 28 0 0.0 0.0 0.00 0.00 0.00 36 956.0
20260507083236 28 0 0.0 0.0 0.00 0.00 0.00 37 956.0
20260507082226 28 0 0.0 0.0 0.00 0.00 0.00 37 956.0
20260507081216 28 0 0.0 0.0 0.00 0.00 0.00 37 956.0
20260507080206 28 0 0.0 0.0 0.00 0.00 0.00 37 956.0
20260507075156 28 0 0.0 0.0 0.00 0.00 0.00 38 956.0
20260507074146 28 0 0.0 0.0 0.00 0.00 0.00 38 956.0
20260507073136 28 0 0.0 0.0 0.00 0.00 0.00 40 956.0
20260507072126 28 0 0.0 0.0 0.00 0.00 0.00 40 956.0
20260507071116 28 0 0.0 0.0 0.00 0.00 0.00 40 956.0
20260507070106 28 0 0.0 0.0 0.00 0.00 0.00 41 956.0
20260507065055 28 0 0.0 0.0 0.00 0.00 0.00 41 956.0
20260507064046 28 0 0.0 0.0 0.00 0.00 0.00 42 956.0
20260507063036 28 0 0.0 0.0 0.00 0.00 0.00 42 955.0
20260507062025 28 0 0.0 0.0 0.00 0.00 0.00 42 955.0
20260507061016 28 0 0.0 0.0 0.00 0.00 0.00 42 955.0
20260507060005 28 0 0.0 0.0 0.00 0.00 0.00 43 955.0
20260507054955 28 0 0.0 0.0 0.00 0.00 0.00 43 955.0
20260507053945 28 0 0.0 0.0 0.00 0.00 0.00 44 955.0
20260507052935 28 0 0.0 0.0 0.00 0.00 0.00 44 955.0
20260507051925 28 0 0.0 0.0 0.00 0.00 0.00 45 955.0
20260507050915 28 0 0.0 0.0 0.00 0.00 0.00 46 955.0
20260507045905 29 0 0.0 0.0 0.00 0.00 0.00 46 955.0
20260507044855 29 0 0.0 0.0 0.00 0.00 0.00 48 954.0
20260507043845 29 0 0.0 0.0 0.00 0.00 0.00 47 954.0
20260507042835 29 0 0.0 0.0 0.00 0.00 0.00 47 954.0
20260507041825 29 0 0.0 0.0 0.00 0.00 0.00 48 955.0
20260507040815 29 0 0.0 0.0 0.00 0.00 0.00 48 954.0
20260507035805 29 0 0.0 0.0 0.00 0.00 0.00 49 954.0
20260507034755 29 0 0.0 0.0 0.00 0.00 0.00 50 954.0
20260507033745 30 0 0.0 0.0 0.00 0.00 0.00 50 954.0
20260507032735 30 0 0.0 0.0 0.00 0.00 0.00 50 954.0
20260507032619 30 0 0.0 0.0 0.00 0.00 0.00 50 954.0
20260507031609 30 0 0.0 0.0 0.00 0.00 0.00 50 954.0
20260507030559 30 0 0.0 0.0 0.00 0.00 0.00 50 953.0
20260507025549 30 0 0.0 0.0 0.00 0.00 0.00 50 953.0
20260507024539 30 0 0.0 0.0 0.00 0.00 0.00 50 953.0
20260507023529 30 0 0.0 0.0 0.00 0.00 0.00 50 953.0
20260507022519 30 0 0.0 0.0 0.00 0.00 0.00 50 953.0
20260507021509 30 0 0.0 0.0 0.00 0.00 0.00 50 953.0
20260507020459 30 0 0.0 0.0 0.00 0.00 0.00 50 953.0
20260507015449 30 0 0.0 0.0 0.00 0.00 0.00 50 953.0
20260507014439 30 0 0.0 0.0 0.00 0.00 0.00 50 954.0
20260507013429 30 0 0.0 0.0 0.00 0.00 0.00 50 953.0
20260507012419 30 0 0.0 0.0 0.00 0.00 0.00 50 953.0
20260507011409 30 0 0.0 0.0 0.00 0.00 0.00 49 953.0
20260507010359 30 0 0.0 0.0 0.00 0.00 0.00 50 953.0
20260507005349 30 0 0.0 0.0 0.00 0.00 0.00 50 953.0
20260507004339 30 0 0.0 0.0 0.00 0.00 0.00 50 953.0
20260507003329 30 0 0.0 0.0 0.00 0.00 0.00 50 952.0
20260507002319 30 0 0.0 0.0 0.00 0.00 0.00 50 952.0
20260507001309 30 0 0.0 0.0 0.00 0.00 0.00 50 952.0
20260507000259 30 0 0.0 0.0 0.00 0.00 0.00 50 952.0
20260506235249 30 0 0.0 0.0 0.00 0.00 0.00 50 952.0
20260506234239 30 0 0.0 0.0 0.00 0.00 0.00 51 952.0
20260506233229 30 0 0.0 0.0 0.00 0.00 0.00 51 952.0
20260506232219 29 0 0.0 0.0 0.00 0.00 0.00 51 952.0
20260506231209 28 0 0.0 0.0 0.00 0.00 0.00 53 951.0
20260506230159 28 0 0.0 0.0 0.00 0.00 0.00 54 951.0
20260506225149 28 0 0.0 0.0 0.00 0.00 0.00 54 951.0
20260506224139 28 0 0.0 0.0 0.00 0.00 0.00 54 951.0
20260506223129 28 0 0.0 0.0 0.00 0.00 0.00 54 950.0
20260506222119 28 0 0.0 0.0 0.00 0.00 0.00 54 950.0
20260506221109 28 0 0.0 0.0 0.00 0.00 0.00 54 950.0
20260506220059 28 0 0.0 0.0 0.00 0.00 0.00 54 950.0
20260506215049 28 0 0.0 0.0 0.00 0.00 0.00 54 949.0
20260506214039 28 0 0.0 0.0 0.00 0.00 0.00 54 949.0
20260506213029 28 0 0.0 0.0 0.00 0.00 0.00 54 949.0
20260506212019 28 0 0.0 0.0 0.00 0.00 0.00 54 949.0
20260506211009 28 0 0.0 0.0 0.00 0.00 0.00 54 949.0
20260506205959 28 0 0.0 0.0 0.00 0.00 0.00 54 949.0
20260506204949 28 0 0.0 0.0 0.00 0.00 0.00 54 949.0
20260506203939 28 0 0.0 0.0 0.00 0.00 0.00 55 949.0
20260506202929 28 0 0.0 0.0 0.00 0.00 0.00 55 949.0
20260506201919 27 0 0.0 0.0 0.00 0.00 0.00 56 950.0
20260506200908 27 0 0.0 0.0 0.00 0.00 0.00 58 950.0
20260506195858 27 0 0.0 0.0 0.00 0.00 0.00 56 950.0
20260506194848 27 0 0.0 0.0 0.00 0.00 0.00 56 950.0
20260506193839 27 0 0.0 0.0 0.00 0.00 0.00 57 950.0
20260506192828 26 0 0.0 0.0 0.00 0.00 0.00 59 950.0
20260506191818 26 0 0.0 0.0 0.00 0.00 0.00 59 950.0
20260506190808 25 0 0.0 0.0 0.00 0.00 0.00 64 950.0
20260506185758 26 0 0.0 0.0 0.00 0.00 0.00 60 950.0
20260506184748 27 0 0.0 0.0 0.00 0.00 0.00 57 950.0
20260506183738 27 0 0.0 0.0 0.00 0.00 0.00 57 951.0
20260506182728 27 0 0.0 0.0 0.00 0.00 0.00 57 951.0
20260506181718 27 0 0.0 0.0 0.00 0.00 0.00 57 951.0
20260506180708 27 0 0.0 0.0 0.00 0.00 0.00 58 951.0
20260506175658 27 0 0.0 0.0 0.00 0.00 0.00 58 951.0
20260506174648 26 0 0.0 0.0 0.00 0.00 0.00 62 951.0
20260506173639 25 0 0.0 0.0 0.00 0.00 0.00 63 951.0
20260506172628 27 0 0.0 0.0 0.00 0.00 0.00 57 951.0
20260506171618 27 0 0.0 0.0 0.00 0.00 0.00 57 952.0
20260506170608 27 0 0.0 0.0 0.00 0.00 0.00 57 952.0
20260506165558 27 0 0.0 0.0 0.00 0.00 0.00 56 952.0
20260506164548 27 0 0.0 0.0 0.00 0.00 0.00 57 952.0
20260506163538 27 0 0.0 0.0 0.00 0.00 0.00 57 952.0
20260506162528 27 0 0.0 0.0 0.00 0.00 0.00 57 953.0
20260506161518 27 0 0.0 0.0 0.00 0.00 0.00 57 953.0
20260506160508 27 0 0.0 0.0 0.00 0.00 0.00 57 953.0
20260506155458 27 0 0.0 0.0 0.00 0.00 0.00 57 953.0
20260506154448 27 0 0.0 0.0 0.00 0.00 0.00 57 954.0